Find Starlink 31638

NORAD ID: 59489 Int'l Des: 2024-071 Owner: SPXS Country: US Constellation: starlink operational
LEOCIRCULAR

Live-Position

3D-Globus wird geladen...

Über Starlink 31638

Beschreibung wird geladen...

Nächste Überflüge

Passes for default location (London). Set your location on the main map for personalized predictions.

Höhenverlauf

Loading altitude history...

Zweizeiliger Elementsatz

1 59489U 24071F 26134.25109632 .00002376 00000-0 95837-4 0 9997
2 59489 43.0040 329.3770 0001046 277.4377 82.6356 15.27585200118237
Epoch: 14. Mai 2026 • Age: 8 hours

Aktueller Status

Höhe 491.8 km
Geschwindigkeit 7.62 km/s
Subsatellitenpunkt -33.64°S, 154.47°W
Startdatum 13. Apr. 2024
Alter 2 years
Typ internet

Technische Details

Klassifizierung Payload
Masse 730.00 kg
Trockenmasse 700.00 kg
Gesamtmasse 730.00 kg
Länge 0.30 m
Durchmesser 4.10 m
Spannweite 29.00 m
Form Box + pan
Hersteller SPXS
Bus-Typ Starlink V2M
Phasenstatus In Orbit
Besitzer/Staat SPXS/US

Most Searched